1508824801.06,33796,8.13,73248.3,-6.31,-7.23,-7.27,0,*58
1508824802.26,33797,8.19,73274.0,-6.31,-7.15,-7.15,0,*5D
1508824803.51,33798,8.19,73262.3,-6.31,-7.35,-7.39,0,*5E
1508824804.77,33799,8.19,73230.8,-6.33,-7.69,-7.77,0,*5E
1508824806.04,33800,8.13,73214.3,-6.33,-7.27,-7.31,0,*59
1508824807.27,33801,8.19,73210.5,-6.29,-7.15,-7.23,0,*51
1508824808.52,33802,8.13,73224.5,-6.33,-7.19,-7.31,0,*56
1508824809.76,33803,8.19,73216.3,-6.31,-7.61,-7.65,0,*5B
1508824811.04,33804,8.13,73232.3,-6.33,-7.57,-7.77,0,*58
1508824812.31,33805,8.19,73246.5,-6.33,-7.43,-7.43,0,*5B
1508824813.53,33806,8.19,73240.8,-6.31,-7.15,-7.27,0,*5B
1508824814.8,33807,8.19,73250.0,-6.33,-7.27,-7.39,0,*56
1508824816.05,33808,8.19,73246.8,-6.33,-7.19,-7.27,0,*5B
1508824817.27,33809,8.19,73236.0,-6.31,-7.49,-7.61,0,*5F
1508824818.49,33810,8.19,73216.8,-6.31,-7.49,-7.61,0,*57
1508824819.73,33811,8.19,73202.3,-6.31,-7.35,-7.39,0,*50
1508824820.95,33812,8.19,73240.0,-6.31,-7.35,-7.53,0,*5F
1508824822.22,33813,8.19,73298.8,-6.33,-7.65,-7.65,0,*5C
1508824823.49,33814,8.19,73262.5,-6.33,-7.27,-7.39,0,*54
1508824824.74,33815,8.19,73270.3,-6.33,-7.19,-7.39,0,*58
1508824825.94,33816,8.19,73272.3,-6.31,-7.19,-7.19,0,*5B
1508824827.14,33817,8.13,73280.5,-6.31,-7.11,-7.11,0,*5A
1508824828.34,33818,8.13,73280.3,-6.31,-7.11,-7.15,0,*51
1508824829.57,33819,8.19,73266.8,-6.33,-7.11,-7.15,0,*52
1508824830.76,33820,8.19,73258.5,-6.31,-7.15,-7.15,0,*5E
1508824831.99,33821,8.19,73238.8,-6.31,-7.15,-7.27,0,*5E
1508824833.25,33822,8.19,73236.3,-6.33,-7.27,-7.31,0,*59
1508824834.5,33823,8.19,73230.3,-6.33,-7.19,-7.27,0,*52
1508824835.72,33824,8.19,73228.8,-6.31,-7.23,-7.27,0,*5E
1508824836.92,33825,8.19,73224.5,-6.31,-7.23,-7.23,0,*5B
1508824838.16,33826,8.19,73252.8,-6.31,-7.27,-7.35,0,*5B
1508824839.36,33827,8.13,73238.3,-6.31,-7.15,-7.15,0,*59
1508824840.6,33828,8.19,73232.8,-6.31,-7.27,-7.27,0,*56
1508824841.83,33829,8.19,73242.0,-6.33,-7.15,-7.19,0,*59
1508824843.03,33830,8.13,73262.0,-6.31,-7.11,-7.23,0,*5E
1508824844.26,33831,8.19,73260.5,-6.33,-7.19,-7.19,0,*5C
1508824845.48,33832,8.13,73234.0,-6.33,-7.19,-7.19,0,*5F
1508824846.68,33833,8.19,73234.3,-6.31,-7.15,-7.23,0,*59
1508824847.92,33834,8.19,73242.5,-6.31,-7.27,-7.35,0,*58
1508824849.12,33835,8.19,73274.8,-6.31,-7.15,-7.23,0,*5F
1508824850.37,33836,8.19,73240.8,-6.33,-7.15,-7.27,0,*5A
1508824851.57,33837,8.13,73254.0,-6.31,-7.11,-7.15,0,*5C
1508824852.79,33838,8.19,73266.5,-6.31,-7.05,-7.11,0,*52
1508824853.99,33839,8.13,73272.3,-6.31,-7.15,-7.15,0,*56
1508824855.18,33840,8.13,73264.5,-6.31,-7.23,-7.23,0,*58
1508824856.41,33841,8.13,73258.8,-6.31,-7.15,-7.27,0,*58
1508824857.63,33842,8.19,73252.5,-6.33,-7.15,-7.19,0,*54
1508824858.86,33843,8.19,73216.8,-6.33,-7.11,-7.15,0,*5D
1508824860.1,33844,8.19,73222.5,-6.31,-7.27,-7.35,0,*5F
1508824861.32,33845,8.13,73234.3,-6.31,-7.15,-7.27,0,*5C
1508824862.54,33846,8.13,73238.0,-6.31,-7.05,-7.15,0,*5F
1508824863.76,33847,8.13,73234.8,-6.31,-7.23,-7.27,0,*5B
1508824865.0,33848,8.19,73220.0,-6.31,-7.27,-7.35,0,*53
1508824866.24,33849,8.19,73238.5,-6.31,-7.05,-7.05,0,*51
1508824867.44,33850,8.13,73242.3,-6.31,-7.11,-7.11,0,*59
1508824868.66,33851,8.13,73226.3,-6.29,-7.15,-7.23,0,*54
1508824869.93,33852,8.13,73232.0,-6.29,-7.35,-7.39,0,*5E
1508824871.15,33853,8.13,73230.5,-6.29,-7.15,-7.23,0,*56
1508824872.35,33854,8.19,73232.5,-6.31,-7.23,-7.23,0,*5D
1508824873.57,33855,8.19,73230.0,-6.31,-7.05,-7.11,0,*59
1508824874.8,33856,8.13,73226.0,-6.29,-7.11,-7.23,0,*57
1508824876.02,33857,8.19,73230.5,-6.29,-7.11,-7.23,0,*56
1508824877.24,33858,8.19,73240.3,-6.29,-7.23,-7.23,0,*58
1508824878.47,33859,8.19,73238.3,-6.29,-7.15,-7.23,0,*5C
1508824879.71,33860,8.13,73230.8,-6.29,-7.53,-7.65,0,*56
1508824880.95,33861,8.19,73232.3,-6.31,-7.35,-7.39,0,*57
1508824882.2,33862,8.19,73220.3,-6.31,-7.61,-7.61,0,*58
1508824883.41,33863,8.19,73224.8,-6.31,-7.39,-7.49,0,*5E
1508824884.65,33864,8.19,73218.8,-6.31,-7.27,-7.39,0,*51
1508824885.85,33865,8.19,73214.8,-6.31,-7.11,-7.15,0,*5B
1508824887.06,33866,8.13,73220.5,-6.31,-7.11,-7.23,0,*5D
1508824888.26,33867,8.19,73234.0,-6.31,-7.11,-7.15,0,*59
1508824889.48,33868,8.19,73214.8,-6.33,-7.15,-7.15,0,*50
1508824890.68,33869,8.19,73208.8,-6.31,-7.11,-7.23,0,*52
1508824891.9,33870,8.19,73220.0,-6.29,-7.11,-7.15,0,*56
1508824893.15,33871,8.13,73236.8,-6.29,-7.05,-7.11,0,*56
1508824894.39,33872,8.19,73226.0,-6.29,-7.35,-7.49,0,*5B
1508824895.63,33873,8.13,73224.0,-6.29,-7.15,-7.27,0,*50
1508824896.9,33874,8.13,73222.8,-6.29,-7.35,-7.35,0,*56
1508824898.14,33875,8.13,73214.0,-6.31,-7.27,-7.35,0,*5D
1508824899.34,33876,8.13,73206.3,-6.31,-7.15,-7.23,0,*58
1508824900.56,33877,8.13,73208.5,-6.31,-7.23,-7.35,0,*5B
1508824901.77,33878,8.13,73228.5,-6.31,-7.39,-7.49,0,*54
1508824902.99,33879,8.13,73236.0,-6.31,-7.49,-7.61,0,*58
1508824904.24,33880,8.19,73234.0,-6.31,-7.65,-7.77,0,*57
1508824905.52,33881,8.13,73226.3,-6.33,-7.43,-7.43,0,*57
1508824906.74,33882,8.19,73242.8,-6.31,-7.15,-7.27,0,*57
1508824907.96,33883,8.19,73230.8,-6.31,-7.23,-7.27,0,*53
1508824909.23,33884,8.19,73236.0,-6.33,-7.27,-7.43,0,*50
1508824910.43,33885,8.19,73236.8,-6.31,-7.15,-7.23,0,*54
1508824911.63,33886,8.19,73238.3,-6.31,-7.11,-7.15,0,*56
1508824912.85,33887,8.13,73222.3,-6.31,-7.15,-7.27,0,*52
1508824914.07,33888,8.13,73202.3,-6.31,-7.53,-7.65,0,*59
1508824915.27,33889,8.19,73208.3,-6.31,-7.15,-7.23,0,*58
1508824916.49,33890,8.19,73206.8,-6.31,-7.23,-7.35,0,*52
1508824917.74,33891,8.19,73202.0,-6.33,-8.11,-8.21,0,*55
1508824918.92,33892,8.19,73198.8,-6.31,-8.33,-8.45,0,*56
1508824920.14,33893,8.19,73196.0,-6.33,-8.63,-8.63,0,*54
1508824921.39,33894,8.13,73202.3,-6.35,-8.03,-8.11,0,*56
1508824922.64,33895,8.19,73208.0,-6.35,-8.07,-8.11,0,*53
1508824923.88,33896,8.13,73214.0,-6.35,-8.03,-8.11,0,*54
1508824925.12,33897,8.19,73214.3,-6.37,-7.69,-7.87,0,*54
1508824926.36,33898,8.13,73216.0,-6.37,-7.49,-7.69,0,*59
1508824927.6,33899,8.19,73212.5,-6.37,-7.35,-7.49,0,*51
1508824928.83,33900,8.13,73202.0,-6.35,-7.19,-7.31,0,*53
1508824930.03,33901,8.13,73216.5,-6.35,-7.19,-7.23,0,*51
1508824931.3,33902,8.13,73208.8,-6.37,-7.31,-7.43,0,*5C
1508824932.5,33903,8.13,73200.5,-6.35,-7.19,-7.19,0,*5A
1508824933.75,33904,8.13,73240.0,-6.37,-7.23,-7.31,0,*5C
1508824934.95,33905,8.19,73210.8,-6.35,-7.15,-7.19,0,*50
1508824936.17,33906,8.19,73204.0,-6.35,-7.15,-7.27,0,*5E
1508824937.37,33907,8.13,73230.0,-6.35,-7.15,-7.15,0,*5E
1508824938.57,33908,8.13,73208.5,-6.35,-7.15,-7.15,0,*51
1508824939.79,33909,8.19,73214.0,-6.37,-7.15,-7.19,0,*5E
1508824941.02,33910,8.19,73196.3,-6.35,-7.01,-7.11,0,*59
1508824942.22,33911,8.13,73224.8,-6.35,-7.11,-7.15,0,*5D
1508824943.43,33912,8.13,73224.0,-6.35,-7.11,-7.15,0,*5E
1508824944.65,33913,8.19,73242.0,-6.37,-7.15,-7.15,0,*59
1508824945.85,33914,8.19,73210.0,-6.35,-7.15,-7.15,0,*5C
1508824947.07,33915,8.13,73212.5,-6.33,-7.15,-7.15,0,*5B
1508824948.29,33916,8.13,73220.3,-6.33,-7.15,-7.15,0,*58
1508824949.52,33917,8.13,73198.3,-6.33,-7.11,-7.15,0,*5D
1508824950.76,33918,8.19,73226.0,-6.33,-7.01,-7.15,0,*53
1508824951.99,33919,8.13,73218.3,-6.33,-7.15,-7.19,0,*5B
1508824953.21,33920,8.13,73200.5,-6.31,-7.11,-7.35,0,*59
1508824954.48,33921,8.19,73208.0,-6.33,-7.31,-7.65,0,*5D
1508824955.73,33922,8.13,73222.0,-6.33,-7.19,-7.43,0,*50
1508824957.0,33923,8.19,73204.8,-6.33,-7.27,-7.39,0,*51
1508824958.25,33924,8.13,73220.8,-6.33,-7.15,-7.27,0,*58
1508824959.47,33925,8.13,73232.8,-6.31,-7.05,-7.11,0,*5F
1508824960.67,33926,8.13,73206.8,-6.31,-7.15,-7.23,0,*5C
1508824961.92,33927,8.19,73206.5,-6.33,-7.19,-7.31,0,*50
1508824963.17,33928,8.13,73218.8,-6.33,-7.19,-7.39,0,*57
1508824964.4,33929,8.19,73230.0,-6.33,-7.19,-7.19,0,*54
1508824965.64,33930,8.19,73204.0,-6.33,-7.19,-7.39,0,*5E
1508824966.9,33931,8.13,73208.8,-6.33,-7.19,-7.31,0,*57
1508824968.11,33932,8.19,73222.8,-6.31,-7.05,-7.15,0,*5D
1508824969.32,33933,8.13,73236.3,-6.31,-7.11,-7.23,0,*5C
1508824970.59,33934,8.19,73224.0,-6.33,-7.31,-7.57,0,*58
1508824971.85,33935,8.13,73212.8,-6.33,-7.39,-7.57,0,*51
1508824973.12,33936,8.13,73204.3,-6.33,-7.39,-7.43,0,*57
1508824974.35,33937,8.19,73210.0,-6.33,-7.19,-7.19,0,*5B
1508824975.61,33938,8.19,73224.3,-6.33,-7.31,-7.39,0,*5C
1508824976.86,33939,8.13,73230.5,-6.33,-7.15,-7.31,0,*53
1508824978.09,33940,8.19,73218.0,-6.33,-7.19,-7.19,0,*5B
1508824979.35,33941,8.13,73232.3,-6.33,-7.31,-7.31,0,*5A
1508824980.6,33942,8.13,73228.3,-6.33,-7.19,-7.31,0,*53
1508824981.83,33943,8.13,73248.0,-6.35,-7.19,-7.27,0,*53
1508824983.06,33944,8.13,73200.3,-6.35,-7.19,-7.27,0,*54
1508824984.3,33945,8.13,73246.8,-6.35,-7.31,-7.39,0,*50
1508824985.55,33946,8.13,73234.3,-6.33,-7.43,-7.53,0,*5C
1508824986.82,33947,8.13,73242.0,-6.33,-7.27,-7.43,0,*5E
1508824988.04,33948,8.19,73256.0,-6.33,-7.19,-7.19,0,*53
1508824989.29,33949,8.13,73236.3,-6.33,-7.19,-7.27,0,*5F
1508824990.52,33950,8.13,73246.8,-6.33,-7.19,-7.19,0,*5A
1508824991.75,33951,8.19,73254.5,-6.35,-7.19,-7.27,0,*50
1508824992.97,33952,8.13,73252.0,-6.33,-7.19,-7.19,0,*58
1508824994.2,33953,8.13,73256.3,-6.33,-7.11,-7.19,0,*51
1508824995.43,33954,8.13,73244.0,-6.33,-7.11,-7.15,0,*5A
1508824996.63,33955,8.19,73280.3,-6.35,-7.11,-7.11,0,*59
1508824997.86,33956,8.13,73268.5,-6.31,-6.97,-7.11,0,*51
1508824999.11,33957,8.13,73268.0,-6.33,-7.01,-7.11,0,*5C
1508825000.36,33958,8.19,73254.5,-6.33,-7.01,-7.11,0,*53
1508825001.56,33959,8.13,73246.8,-6.31,-6.81,-6.81,0,*51
1508825002.76,33960,8.19,73240.8,-6.31,-6.81,-6.85,0,*5F
1508825003.95,33961,8.13,73242.3,-6.31,-6.85,-6.89,0,*56
1508825005.17,33962,8.13,73268.8,-6.31,-6.85,-6.97,0,*5A
1508825006.38,33963,8.19,73244.8,-6.31,-6.85,-6.93,0,*5F
1508825007.63,33964,8.19,73236.0,-6.31,-6.93,-6.97,0,*5B
1508825008.85,33965,8.13,73224.8,-6.31,-6.85,-6.93,0,*59
1508825010.06,33966,8.13,73222.5,-6.31,-6.85,-6.97,0,*5E
1508825011.26,33967,8.19,73230.0,-6.31,-6.81,-6.85,0,*58
1508825012.48,33968,8.19,73234.3,-6.31,-6.85,-6.93,0,*54
1508825013.72,33969,8.13,73226.5,-6.29,-7.05,-7.11,0,*5E
1508825014.95,33970,8.19,73214.3,-6.29,-7.11,-7.11,0,*53
1508825016.2,33971,8.19,73230.5,-6.29,-7.05,-7.11,0,*57
1508825017.42,33972,8.13,73220.0,-6.29,-7.11,-7.23,0,*50
1508825018.65,33973,8.19,73222.0,-6.29,-7.11,-7.11,0,*50
1508825019.87,33974,8.13,73232.3,-6.29,-7.11,-7.15,0,*53
1508825021.14,33975,8.13,73232.3,-6.29,-7.27,-7.27,0,*56
1508825022.36,33976,8.19,73232.8,-6.29,-7.15,-7.23,0,*50
1508825023.58,33977,8.19,73240.0,-6.25,-7.05,-7.19,0,*55
1508825024.81,33978,8.19,73238.0,-6.25,-7.05,-7.11,0,*52
1508825026.06,33979,8.13,73216.8,-6.29,-7.05,-7.15,0,*5B
1508825027.3,33980,8.13,73216.0,-6.29,-7.23,-7.27,0,*58
1508825028.57,33981,8.19,73216.5,-6.29,-7.35,-7.39,0,*51
1508825029.84,33982,8.19,73198.5,-6.29,-7.35,-7.39,0,*52
1508825031.06,33983,8.13,73198.0,-6.29,-7.15,-7.23,0,*5A
1508825032.3,33984,8.13,73198.3,-6.29,-7.05,-7.11,0,*5D
1508825033.55,33985,8.13,73206.3,-6.29,-7.53,-7.61,0,*58
1508825034.82,33986,8.13,73200.5,-6.29,-7.73,-7.73,0,*5A
1508825036.05,33987,8.19,73206.8,-6.29,-7.39,-7.53,0,*57
1508825037.29,33988,8.13,73188.5,-6.29,-7.35,-7.53,0,*54
1508825038.51,33989,8.19,73222.5,-6.31,-7.53,-7.61,0,*5D
1508825039.75,33990,8.19,73238.5,-6.31,-7.27,-7.35,0,*57
1508825041.0,33991,8.13,73234.3,-6.31,-7.27,-7.35,0,*56
1508825042.25,33992,8.19,73234.3,-6.33,-7.19,-7.31,0,*5E
1508825043.47,33993,8.19,73250.0,-6.31,-7.05,-7.15,0,*56
1508825044.7,33994,8.19,73250.3,-6.33,-7.11,-7.11,0,*52
1508825045.94,33995,8.13,73248.5,-6.33,-7.01,-7.11,0,*52
1508825047.14,33996,8.13,73246.8,-6.31,-7.23,-7.23,0,*52
1508825048.36,33997,8.19,73252.3,-6.31,-7.23,-7.35,0,*54
1508825049.58,33998,8.13,73250.0,-6.31,-7.23,-7.27,0,*58
1508825050.83,33999,8.19,73238.3,-6.33,-7.83,-7.91,0,*5C
1508825052.02,34000,8.13,73238.8,-6.31,-7.87,-7.87,0,*53
1508825053.24,34001,8.13,73228.5,-6.33,-7.53,-7.53,0,*50
1508825054.51,34002,8.19,73232.8,-6.33,-7.31,-7.39,0,*5B
1508825055.73,34003,8.19,73232.0,-6.31,-7.19,-7.27,0,*5D
1508825056.96,34004,8.19,73232.0,-6.33,-7.11,-7.19,0,*5D
1508825058.18,34005,8.19,73234.3,-6.31,-7.05,-7.11,0,*53
1508825059.4,34006,8.13,73230.3,-6.31,-7.15,-7.27,0,*54
1508825060.65,34007,8.13,73230.8,-6.33,-7.53,-7.65,0,*53
1508825061.92,34008,8.19,73220.5,-6.33,-7.39,-7.43,0,*54
1508825063.18,34009,8.19,73226.8,-6.33,-7.27,-7.31,0,*5F
1508825064.43,34010,8.19,73260.5,-6.33,-7.19,-7.31,0,*5A
1508825065.66,34011,8.19,73252.5,-6.33,-7.19,-7.19,0,*51
1508825066.91,34012,8.19,73232.3,-6.33,-7.19,-7.27,0,*5F
1508825068.14,34013,8.19,73264.5,-6.33,-7.11,-7.19,0,*5B
1508825069.36,34014,8.19,73242.3,-6.33,-7.11,-7.15,0,*50
1508825070.56,34015,8.13,73238.5,-6.31,-7.15,-7.23,0,*52
1508825071.78,34016,8.19,73232.3,-6.33,-7.15,-7.19,0,*5A
1508825073.06,34017,8.19,73234.0,-6.33,-6.97,-7.01,0,*59
1508825074.28,34018,8.19,73240.5,-6.31,-6.97,-7.11,0,*55
1508825075.53,34019,8.13,73250.3,-6.33,-7.01,-7.11,0,*58
1508825076.78,34020,8.19,73238.0,-6.33,-6.97,-7.11,0,*5C
1508825078.05,34021,8.19,73230.8,-6.33,-7.01,-7.05,0,*56
1508825079.27,34022,8.19,73228.3,-6.31,-7.05,-7.11,0,*56
1508825080.47,34023,8.19,73218.5,-6.31,-7.11,-7.15,0,*56
1508825081.67,34024,8.19,73222.8,-6.31,-7.11,-7.15,0,*51
1508825082.87,34025,8.19,73220.3,-6.31,-7.11,-7.11,0,*54
1508825084.07,34026,8.13,73212.5,-6.31,-7.23,-7.23,0,*57
1508825085.29,34027,8.13,73188.0,-6.29,-7.15,-7.23,0,*5A
1508825086.51,34028,8.19,73200.3,-6.29,-7.15,-7.15,0,*50
1508825087.71,34029,8.19,73204.0,-6.31,-7.11,-7.15,0,*5C
1508825088.93,34030,8.13,73186.0,-6.31,-7.23,-7.35,0,*57
1508825090.17,34031,8.19,73186.5,-6.31,-7.27,-7.35,0,*52
1508825091.42,34032,8.19,73200.8,-6.31,-7.27,-7.35,0,*51
1508825092.66,34033,8.19,73190.0,-6.31,-7.35,-7.35,0,*53
1508825093.86,34034,8.19,73192.0,-6.31,-7.15,-7.15,0,*54
1508825095.06,34035,8.13,73192.8,-6.31,-7.23,-7.23,0,*55
1508825096.28,34036,8.13,73194.0,-6.31,-7.49,-7.61,0,*5C
1508825097.52,34037,8.19,73202.5,-6.31,-7.27,-7.35,0,*54
1508825098.76,34038,8.13,73204.3,-6.31,-7.39,-7.39,0,*58
1508825100.0,34039,8.13,73218.5,-6.31,-7.61,-7.65,0,*5D
1508825101.27,34040,8.13,73222.0,-6.33,-7.39,-7.43,0,*58
1508825102.54,34041,8.13,73202.5,-6.33,-7.31,-7.39,0,*5C
1508825103.79,34042,8.19,73196.0,-6.33,-7.19,-7.31,0,*5D
1508825105.04,34043,8.13,73196.3,-6.33,-7.19,-7.31,0,*5C
1508825106.3,34044,8.13,73216.5,-6.33,-7.31,-7.39,0,*59
1508825107.57,34045,8.19,73224.3,-6.33,-7.27,-7.31,0,*57
1508825108.85,34046,8.19,73234.0,-6.33,-7.43,-7.57,0,*56
1508825110.08,34047,8.19,73206.3,-6.33,-7.31,-7.53,0,*56
1508825111.35,34048,8.13,73166.3,-6.33,-7.27,-7.31,0,*5A
1508825112.58,34049,8.19,73234.8,-6.33,-7.15,-7.19,0,*50
1508825113.83,34050,8.13,73224.8,-6.33,-7.19,-7.27,0,*59
1508825115.09,34051,8.19,73220.3,-6.33,-7.39,-7.43,0,*58
1508825116.34,34052,8.19,73198.5,-6.33,-7.53,-7.65,0,*53
1508825117.61,34053,8.13,73210.3,-6.33,-7.39,-7.43,0,*5A
1508825118.84,34054,8.13,73198.5,-6.33,-7.39,-7.53,0,*5C
1508825120.09,34055,8.13,73186.8,-6.33,-7.19,-7.27,0,*5C
1508825121.34,34056,8.19,73210.8,-6.33,-7.19,-7.27,0,*5F
1508825122.61,34057,8.19,73232.8,-6.33,-7.31,-7.39,0,*5B
1508825123.88,34058,8.13,73230.8,-6.33,-7.65,-7.65,0,*5C
1508825125.16,34059,8.13,73224.5,-6.33,-7.65,-7.77,0,*5E
1508825126.4,34060,8.19,73238.3,-6.37,-7.19,-7.31,0,*59
1508825127.63,34061,8.19,73228.3,-6.35,-7.15,-7.27,0,*51
1508825128.86,34062,8.13,73218.5,-6.35,-7.19,-7.31,0,*59
1508825130.12,34063,8.13,73234.3,-6.33,-7.31,-7.31,0,*54
1508825131.4,34064,8.19,73264.8,-6.33,-7.31,-7.43,0,*56
1508825132.63,34065,8.13,73220.5,-6.33,-7.39,-7.53,0,*5E
1508825133.86,34066,8.13,73224.3,-6.33,-7.19,-7.19,0,*51
1508825135.08,34067,8.19,73230.3,-6.33,-7.11,-7.15,0,*54
1508825136.31,34068,8.19,73204.0,-6.33,-7.15,-7.15,0,*5F
1508825137.53,34069,8.19,73200.0,-6.33,-7.19,-7.23,0,*57
1508825138.76,34070,8.19,73232.5,-6.33,-7.19,-7.19,0,*56
1508825139.99,34071,8.13,73230.3,-6.33,-7.19,-7.19,0,*57
1508825141.21,34072,8.13,73244.5,-6.33,-7.11,-7.19,0,*5C
1508825142.48,34073,8.13,73222.8,-6.33,-7.01,-7.01,0,*55
1508825143.68,34074,8.19,73224.3,-6.31,-7.11,-7.15,0,*54
1508825144.93,34075,8.19,73244.8,-6.33,-6.93,-7.15,0,*5C
1508825146.17,34076,8.13,73232.0,-6.31,-6.93,-7.05,0,*5C
1508825147.42,34077,8.13,73220.3,-6.31,-6.93,-6.97,0,*57
1508825148.66,34078,8.19,73212.3,-6.33,-6.89,-6.97,0,*51
1508825149.9,34079,8.13,73208.3,-6.31,-7.01,-7.05,0,*59
1508825151.11,34080,8.13,73204.0,-6.31,-6.85,-7.05,0,*52
1508825152.33,34081,8.19,73212.0,-6.33,-7.15,-7.15,0,*58
1508825153.57,34082,8.19,73220.0,-6.31,-6.97,-7.05,0,*53
1508825154.79,34083,8.13,73224.5,-6.33,-7.15,-7.15,0,*5A
1508825156.03,34084,8.13,73238.8,-6.31,-6.97,-7.05,0,*55
1508825157.26,34085,8.13,73218.3,-6.31,-6.97,-7.11,0,*51
1508825158.45,34086,8.13,73216.3,-6.31,-6.81,-6.85,0,*59
1508825159.65,34087,8.19,73212.8,-6.31,-6.73,-6.81,0,*51
1508825160.87,34088,8.19,73222.5,-6.29,-6.69,-6.81,0,*5C
1508825162.07,34089,8.19,73216.5,-6.25,-6.55,-6.69,0,*58
1508825163.29,34090,8.19,73206.8,-6.25,-6.63,-6.77,0,*5A
1508825164.5,34091,8.13,73204.8,-6.29,-6.73,-6.85,0,*5B
1508825165.71,34092,8.19,73202.8,-6.25,-6.77,-6.81,0,*54
1508825166.93,34093,8.19,73206.8,-6.29,-6.81,-6.85,0,*54
1508825168.14,34094,8.19,73218.8,-6.25,-6.77,-6.77,0,*5B
1508825169.34,34095,8.19,73216.5,-6.25,-6.81,-6.89,0,*52
1508825170.59,34096,8.19,73204.8,-6.25,-6.93,-6.93,0,*59
1508825171.85,34097,8.19,73204.3,-6.23,-6.93,-7.11,0,*55
1508825173.08,34098,8.19,73218.5,-6.25,-7.01,-7.11,0,*56
1508825174.31,34099,8.19,73214.8,-6.25,-7.05,-7.11,0,*53
1508825175.56,34100,8.19,73214.3,-6.23,-7.05,-7.23,0,*55
1508825176.84,34101,8.13,73228.3,-6.23,-7.01,-7.01,0,*50
1508825178.11,34102,8.13,73212.8,-6.23,-6.93,-7.05,0,*5D
1508825179.38,34103,8.19,73226.5,-6.23,-6.93,-7.05,0,*5C
1508825180.65,34104,8.19,73228.0,-6.23,-7.01,-7.01,0,*55
1508825181.92,34105,8.19,73226.3,-6.23,-7.05,-7.05,0,*54
1508825183.17,34106,8.19,73226.3,-6.23,-7.05,-7.11,0,*52
1508825184.4,34107,8.19,73228.3,-6.23,-7.11,-7.23,0,*57
1508825185.66,34108,8.19,73230.8,-6.23,-7.19,-7.31,0,*53
1508825186.91,34109,8.13,73226.3,-6.23,-7.19,-7.31,0,*52
1508825188.13,34110,8.13,73224.5,-6.21,-7.05,-7.15,0,*53
1508825189.39,34111,8.13,73220.5,-6.23,-7.05,-7.11,0,*54
1508825190.63,34112,8.19,73224.5,-6.21,-7.01,-7.01,0,*50
1508825191.88,34113,8.19,73216.5,-6.23,-7.05,-7.19,0,*5E
1508825193.11,34114,8.19,73226.3,-6.25,-7.19,-7.31,0,*58
1508825194.37,34115,8.13,73228.5,-6.23,-7.19,-7.31,0,*5F
1508825195.62,34116,8.19,73228.3,-6.25,-7.35,-7.43,0,*51
1508825196.87,34117,8.19,73234.0,-6.25,-7.31,-7.43,0,*54
1508825198.13,34118,8.13,73230.3,-6.25,-7.35,-7.43,0,*5F
1508825199.35,34119,8.13,73246.5,-6.25,-7.35,-7.49,0,*54
1508825200.58,34120,8.19,73236.3,-6.25,-7.23,-7.35,0,*52
1508825201.79,34121,8.19,73246.5,-6.25,-7.11,-7.23,0,*55
1508825203.02,34122,8.19,73250.8,-6.25,-7.19,-7.31,0,*5D
1508825204.27,34123,8.19,73256.5,-6.29,-7.15,-7.27,0,*5B
1508825205.47,34124,8.19,73252.8,-6.25,-7.11,-7.19,0,*59
1508825206.68,34125,8.19,73250.5,-6.25,-7.19,-7.23,0,*59
1508825207.91,34126,8.13,73260.3,-6.25,-7.19,-7.31,0,*59
1508825209.14,34127,8.19,73242.8,-6.25,-7.19,-7.31,0,*58
1508825210.39,34128,8.19,73242.8,-6.29,-7.23,-7.27,0,*55
1508825211.63,34129,8.19,73226.3,-6.29,-7.23,-7.27,0,*54
1508825212.85,34130,8.19,73232.5,-6.29,-7.15,-7.15,0,*58
1508825214.09,34131,8.19,73216.8,-6.25,-7.05,-7.05,0,*55
1508825215.34,34132,8.19,73224.3,-6.29,-7.15,-7.27,0,*5B
1508825216.59,34133,8.19,73224.8,-6.25,-7.31,-7.35,0,*53
1508825217.84,34134,8.19,73202.0,-6.25,-7.31,-7.43,0,*55
1508825219.05,34135,8.13,73200.8,-6.25,-7.11,-7.11,0,*51
1508825220.27,34136,8.19,73194.8,-6.25,-6.89,-7.05,0,*57
1508825221.51,34137,8.19,73202.0,-6.29,-7.05,-7.15,0,*5E
1508825222.74,34138,8.19,73210.3,-6.25,-7.01,-7.11,0,*5D
1508825223.98,34139,8.19,73214.8,-6.29,-7.15,-7.27,0,*50
1508825225.22,34140,8.19,73218.3,-6.29,-7.39,-7.49,0,*58
1508825226.44,34141,8.13,73214.5,-6.25,-7.49,-7.57,0,*5D
1508825227.71,34142,8.13,73208.0,-6.29,-7.65,-7.77,0,*5E
1508825228.95,34143,8.13,73206.8,-6.29,-7.49,-7.65,0,*52
1508825230.2,34144,8.13,73210.0,-6.29,-7.49,-7.61,0,*51
1508825231.44,34145,8.19,73208.3,-6.29,-7.35,-7.49,0,*51
1508825232.67,34146,8.13,73196.3,-6.29,-7.39,-7.53,0,*55
1508825233.91,34147,8.19,73210.3,-6.31,-7.27,-7.39,0,*5E
1508825235.13,34148,8.13,73180.5,-6.31,-7.65,-7.87,0,*52
1508825236.38,34149,8.19,73188.8,-6.31,-7.61,-7.73,0,*5C
1508825237.66,34150,8.19,73192.3,-6.33,-7.57,-7.65,0,*54
1508825238.93,34151,8.13,73170.0,-6.33,-7.57,-7.57,0,*54
1508825240.14,34152,8.13,73180.5,-6.31,-7.39,-7.49,0,*52
1508825241.39,34153,8.19,73168.5,-6.31,-7.61,-7.65,0,*50
1508825242.66,34154,8.13,73182.0,-6.33,-7.27,-7.31,0,*56
1508825243.93,34155,8.13,73156.3,-6.33,-7.65,-7.77,0,*53
1508825245.17,34156,8.19,73156.5,-6.33,-7.43,-7.53,0,*52
1508825246.45,34157,8.19,73166.5,-6.33,-7.43,-7.43,0,*52
1508825247.67,34158,8.13,73178.8,-6.33,-7.19,-7.19,0,*5D
1508825248.93,34159,8.19,73180.8,-6.33,-7.19,-7.27,0,*51
1508825250.15,34160,8.19,73220.0,-6.33,-7.11,-7.19,0,*5E
1508825251.37,34161,8.19,73222.8,-6.33,-7.15,-7.15,0,*57
1508825252.58,34162,8.19,73228.0,-6.31,-7.11,-7.23,0,*57
1508825253.8,34163,8.19,73212.5,-6.33,-7.15,-7.19,0,*59
1508825255.02,34164,8.19,73206.5,-6.31,-7.05,-7.11,0,*55
1508825256.25,34165,8.19,73206.0,-6.33,-7.11,-7.15,0,*57
1508825257.45,34166,8.19,73208.5,-6.31,-7.11,-7.11,0,*52
1508825258.7,34167,8.19,73228.8,-6.33,-7.01,-7.15,0,*54
1508825259.94,34168,8.19,73262.5,-6.31,-6.93,-7.05,0,*52
1508825261.19,34169,8.19,73250.3,-6.33,-7.01,-7.11,0,*5E
1508825262.41,34170,8.19,73224.0,-6.31,-7.05,-7.11,0,*50
1508825263.64,34171,8.13,73214.0,-6.29,-7.11,-7.11,0,*5D
1508825264.88,34172,8.19,73208.8,-6.29,-7.05,-7.11,0,*5B
1508825266.1,34173,8.19,73204.0,-6.31,-7.05,-7.15,0,*57
1508825267.3,34174,8.19,73216.3,-6.31,-7.11,-7.23,0,*50
1508825268.55,34175,8.19,73238.8,-6.31,-7.35,-7.27,0,*53
1508825269.74,34176,8.13,73210.3,-6.31,-7.15,-7.19,0,*5F
1508825270.97,34177,8.19,73218.0,-6.33,-7.11,-7.11,0,*50
1508825272.22,34178,8.19,73214.0,-6.33,-7.01,-7.15,0,*5A
1508825273.44,34179,8.19,73210.0,-6.29,-7.11,-7.15,0,*51
1508825274.67,34180,8.13,73214.3,-6.29,-7.11,-7.15,0,*57
1508825275.91,34181,8.19,73214.0,-6.29,-7.05,-7.11,0,*57
1508825277.14,34182,8.13,73206.5,-6.29,-7.11,-7.15,0,*55
1508825278.36,34183,8.19,73218.3,-6.29,-7.11,-7.15,0,*54
1508825279.62,34184,8.13,73224.3,-6.29,-7.27,-7.27,0,*57
1508825280.87,34185,8.19,73228.0,-6.29,-7.05,-7.11,0,*53
1508825282.11,34186,8.19,73224.8,-6.29,-7.05,-7.15,0,*54
1508825283.33,34187,8.19,73230.3,-6.29,-7.11,-7.15,0,*50
1508825284.58,34188,8.19,73242.5,-6.29,-7.05,-7.11,0,*5E
1508825285.82,34189,8.19,73242.3,-6.29,-7.05,-7.15,0,*5B
1508825287.05,34190,8.19,73222.5,-6.25,-6.89,-7.01,0,*5F
1508825288.31,34191,8.19,73228.5,-6.29,-6.93,-7.05,0,*5D
1508825289.57,34192,8.19,73232.8,-6.29,-6.93,-7.05,0,*5E
1508825290.79,34193,8.19,73220.3,-6.29,-6.81,-6.85,0,*55
1508825292.04,34194,8.19,73222.3,-6.29,-6.97,-7.11,0,*59
1508825293.29,34195,8.19,73222.5,-6.25,-6.93,-7.05,0,*55
1508825294.53,34196,8.19,73220.5,-6.25,-7.01,-7.05,0,*5C
1508825295.78,34197,8.19,73222.5,-6.25,-7.01,-7.05,0,*5D
1508825297.02,34198,8.19,73230.0,-6.29,-7.05,-7.11,0,*5F
1508825298.25,34199,8.19,73232.5,-6.25,-6.89,-7.01,0,*56
1508825299.47,34200,8.19,73234.0,-6.25,-6.89,-7.01,0,*55
1508825300.68,34201,8.19,73226.5,-6.25,-7.19,-7.23,0,*5C
1508825301.91,34202,8.19,73224.8,-6.25,-7.11,-7.31,0,*54
1508825303.15,34203,8.19,73222.0,-6.29,-7.05,-7.15,0,*5A
1508825304.42,34204,8.19,73212.8,-6.29,-6.93,-7.05,0,*52
1508825305.63,34205,8.19,73206.3,-6.25,-6.77,-6.81,0,*58
1508825306.85,34206,8.19,73192.5,-6.25,-6.89,-7.01,0,*53
1508825308.1,34207,8.19,73196.5,-6.25,-6.93,-7.01,0,*59
1508825309.31,34208,8.19,73198.8,-6.25,-7.11,-7.19,0,*54
1508825310.52,34209,8.19,73210.0,-6.25,-7.11,-7.23,0,*5C
1508825311.73,34210,8.19,73196.0,-6.25,-7.11,-7.11,0,*55
1508825312.96,34211,8.19,73218.8,-6.25,-7.05,-7.11,0,*51
1508825314.17,34212,8.19,73254.3,-6.25,-7.11,-7.11,0,*57
1508825315.38,34213,8.19,73232.3,-6.25,-7.11,-7.11,0,*56
1508825316.61,34214,8.19,73242.3,-6.25,-7.05,-7.11,0,*54
1508825317.86,34215,8.13,73254.8,-6.25,-6.93,-7.01,0,*5A
1508825319.11,34216,8.19,73240.3,-6.25,-6.93,-7.05,0,*5D